Meath Environmental Platform

Observations for Trim Patrick St

Time AQI Temp °C Hum % Pres Pa CO μg/m³ H₂S μg/m³ NO μg/m³ NO₂ μg/m³ O₃ μg/m³ SO₂ μg/m³ PM1 μg/m³ PM2.5 μg/m³ PM10 μg/m³
Saturday 1 August 2026
00:39 2 13.9 68 112,375 0.33 3.09 3.45 14.43 38.74 0 8.86 15.39 16.93
00:38 2 14 68 112,464 0.32 4.07 3.41 17.45 37.14 0 8.86 16.14 17.75
00:37 2 14 66 111,635 0.32 5.03 3.32 19.82 31.7 0 10.57 14.89 16.38
00:36 2 13.9 68 110,384 0.33 5.68 3.41 28 35.86 0 9.71 14.73 16.2
00:35 2 13.9 69 109,163 0.34 5.24 3.46 21.46 39.99 0 8 14.63 16.09
00:34 2 14 68 108,348 0.31 5.32 3.41 32.15 31.89 0 8.86 13.97 15.37
00:33 2 14 69 107,317 0.32 5.06 3.42 21.46 38.61 0 8.86 16.78 18.46
00:32 2 14 69 107,219 0.32 5.35 3.43 20.46 40.19 0 9.71 13.93 15.32
00:31 2 14 68 106,442 0.32 5.63 3.41 27.09 44.73 0 7.14 14.69 16.16
00:30 2 14 69 105,423 0.31 4.52 3.42 19.26 39.9 0 10.57 16.07 17.68
00:29 2 14 69 105,046 0.32 5.66 3.43 20.09 43.36 0 8.86 15.36 16.89
00:28 2 14 69 104,514 0.31 5.81 3.43 24.5 45.88 0 8.86 15.33 16.86
00:27 2 14 69 105,669 0.31 5.81 3.43 24.04 43.62 0 9.71 14.62 16.08
00:25 2 14 69 104,077 0.31 5.84 3.43 21.48 42.66 0 8.86 13.88 15.26
00:24 2 14 69 103,393 0.29 5.87 3.43 28.21 43.9 0 8.86 14.61 16.07
00:23 2 14 69 102,586 0.31 5.42 3.43 15.92 35.57 0 8.86 16.05 17.66
00:22 2 14 69 101,888 0.31 6.83 3.42 37.48 44.65 0 11.43 16.8 18.48
00:21 2 14 69 100,630 0.29 5.16 3.43 18.07 46.89 0 9.71 14.62 16.08
00:20 2 14 69 99,787 0.31 6.18 3.41 24.88 40.56 0 9.71 15.36 16.89
00:18 2 14 69 97,436 0.29 6.31 3.4 37.87 32.8 0 13.14 19.71 21.68